Location: L�Ave Maria
(50.7161°N, 1.5911°E)
Time: 13:23:48
(UTC+00:00)

ATLAS 2AS CENTAUR R/B - Pass Details

Date: 10 July 2020
Orbit: 930 x 1282 km, 63.7° (Epoch: 19 July)

Event Time Altitude Azimuth Distance (km) Brightness Sun altitude
Rises 20:36:50 0° 314° (NW) 4,215 9.0 -4.7°
Reaches altitude 10° 20:39:44 10° 317° (NW) 3,214 7.2 -5.0°
Maximum altitude 20:47:28 68° 41° (NE) 1,260 3.2 -5.9°
Drops below altitude 10° 20:54:33 10° 124° (ESE) 2,960 4.4 -6.6°
Enters shadow 20:55:17 - 125° (SE) 3,215 4.6 -6.7°
